TimeAKST,TemperatureF,Dew PointF,Humidity,Sea Level PressureIn,VisibilityMPH,Wind Direction,Wind SpeedMPH,Gust SpeedMPH,PrecipitationIn,Events,Conditions,WindDirDegrees,DateUTC
12:53 AM,-9999,-9999,N/A,29.89,-9999.0,North,-9999.0,-,N/A,,Unknown,0,2014-01-29 09:53:00
1:53 AM,-9999,-9999,N/A,29.89,-9999.0,North,-9999.0,-,N/A,,Unknown,0,2014-01-29 10:53:00
2:53 AM,-9999,-9999,N/A,29.89,-9999.0,North,-9999.0,-,N/A,,Unknown,0,2014-01-29 11:53:00
3:53 AM,-9999,-9999,N/A,29.89,-9999.0,North,-9999.0,-,N/A,,Unknown,0,2014-01-29 12:53:00
4:53 AM,-9999,-9999,N/A,29.89,-9999.0,North,-9999.0,-,N/A,,Unknown,0,2014-01-29 13:53:00
5:53 AM,-9999,-9999,N/A,29.88,-9999.0,North,-9999.0,-,N/A,,Unknown,0,2014-01-29 14:53:00
6:53 AM,-9999,-9999,N/A,29.89,-9999.0,North,-9999.0,-,N/A,,Unknown,0,2014-01-29 15:53:00
7:53 AM,-9999,-9999,N/A,29.89,-9999.0,North,-9999.0,-,N/A,,Unknown,0,2014-01-29 16:53:00
8:53 AM,-9999,-9999,N/A,29.90,-9999.0,North,-9999.0,-,N/A,,Unknown,0,2014-01-29 17:53:00
9:53 AM,-9999,-9999,N/A,29.90,-9999.0,North,-9999.0,-,N/A,,Unknown,0,2014-01-29 18:53:00
10:53 AM,-9999,-9999,N/A,29.91,-9999.0,North,-9999.0,-,N/A,,Unknown,0,2014-01-29 19:53:00
11:53 AM,-9999,-9999,N/A,29.90,-9999.0,North,-9999.0,-,N/A,,Unknown,0,2014-01-29 20:53:00
12:53 PM,37.9,17.1,43,29.91,10.0,Calm,Calm,-,N/A,,Partly Cloudy,0,2014-01-29 21:53:00
1:53 PM,45.0,21.0,39,29.91,10.0,East,10.4,-,N/A,,Clear,100,2014-01-29 22:53:00
2:53 PM,46.0,19.9,35,29.91,10.0,East,12.7,-,N/A,,Clear,80,2014-01-29 23:53:00
3:53 PM,46.9,21.0,36,29.91,10.0,East,6.9,-,N/A,,Clear,90,2014-01-30 00:53:00
4:53 PM,45.0,21.9,40,29.92,10.0,East,8.1,-,N/A,,Clear,100,2014-01-30 01:53:00
5:53 PM,46.9,21.0,36,29.92,10.0,ESE,9.2,-,N/A,,Mostly Cloudy,120,2014-01-30 02:53:00
6:53 PM,45.0,21.0,39,29.93,10.0,SSE,5.8,-,N/A,,Clear,160,2014-01-30 03:53:00
7:53 PM,44.1,21.0,40,29.93,10.0,ESE,10.4,-,N/A,,Partly Cloudy,110,2014-01-30 04:53:00
8:53 PM,43.0,21.0,42,29.93,10.0,ESE,11.5,-,N/A,,Clear,110,2014-01-30 05:53:00
9:53 PM,44.1,21.0,40,29.92,10.0,SE,13.8,-,N/A,,Clear,130,2014-01-30 06:53:00
10:53 PM,41.0,21.0,45,29.92,10.0,SE,17.3,-,N/A,,Clear,130,2014-01-30 07:53:00
11:53 PM,42.1,21.0,43,29.94,10.0,SE,16.1,-,N/A,,Clear,140,2014-01-30 08:53:00